EW7199 Weather Reports


time (UTC)temp
F
wind
direction
speed
knots
gust
knots
rain 1hr
in
rain 24hr
in
rain mn
in
humidity
%
barometer
mb
20260905201913 85 277 0.0 0.0 0.00 0.00 0.00 56 1017.1
20260905201412 85 277 0.0 0.0 0.00 0.00 0.00 55 1017.1
20260905200912 86 277 0.0 1.7 0.00 0.00 0.00 55 1017.1
20260905200412 86 269 0.0 1.7 0.00 0.00 0.00 56 1017.2
20260905195414 85 292 0.9 1.7 0.00 0.00 0.00 57 1017.3
20260905194913 85 305 0.9 1.7 0.00 0.00 0.00 58 1017.4
20260905193912 86 295 0.9 1.7 0.00 0.00 0.00 58 1017.4
20260905193411 86 260 0.9 1.7 0.00 0.00 0.00 58 1017.4
20260905192912 86 263 0.9 2.6 0.00 0.00 0.00 58 1017.3
20260905191913 86 259 0.9 1.7 0.00 0.00 0.00 57 1017.3
20260905191412 86 263 1.7 2.6 0.00 0.00 0.00 57 1017.2
20260905190912 86 256 1.7 2.6 0.00 0.00 0.00 58 1017.3
20260905185914 86 253 0.9 1.7 0.00 0.00 0.00 57 1017.1
20260905185414 86 252 1.7 2.6 0.00 0.00 0.00 57 1017.1
20260905184916 86 252 1.7 2.6 0.00 0.00 0.00 56 1017.0
20260905183913 86 223 0.0 0.0 0.00 0.00 0.00 55 1016.8
20260905183413 86 223 0.0 0.0 0.00 0.00 0.00 55 1016.8
20260905182912 86 223 0.0 0.0 0.00 0.00 0.00 55 1016.7
20260905182412 86 223 0.0 0.0 0.00 0.00 0.00 55 1016.7
20260905181912 86 223 0.0 0.0 0.00 0.00 0.00 56 1016.6
20260905180913 86 223 0.0 0.0 0.00 0.00 0.00 56 1016.4
20260905180412 86 223 0.9 1.7 0.00 0.00 0.00 55 1016.4
20260905175912 86 223 0.9 1.7 0.00 0.00 0.00 55 1016.4
20260905174414 86 223 1.7 1.7 0.00 0.00 0.00 55 1016.3
20260905173913 87 223 0.9 1.7 0.00 0.00 0.00 54 1016.2
20260905173413 87 232 0.9 2.6 0.00 0.00 0.00 53 1016.3
20260905172911 87 230 0.9 2.6 0.00 0.00 0.00 52 1016.2
20260905172413 87 239 0.9 2.6 0.00 0.00 0.00 50 1016.1
20260905171912 87 216 1.7 2.6 0.00 0.00 0.00 48 1016.1
20260905171412 88 229 1.7 2.6 0.00 0.00 0.00 49 1016.2
20260905170912 88 254 1.7 2.6 0.00 0.00 0.00 48 1016.1
20260905170412 88 254 0.9 2.6 0.00 0.00 0.00 46 1016.1
20260905165912 89 257 1.7 2.6 0.00 0.00 0.00 46 1016.1
20260905165412 89 265 0.9 2.6 0.00 0.00 0.00 45 1016.0
20260905164916 90 229 0.9 1.7 0.00 0.00 0.00 41 1016.1
20260905164413 90 228 1.7 2.6 0.00 0.00 0.00 38 1016.0
20260905163911 91 239 0.9 2.6 0.00 0.00 0.00 38 1016.0
20260905163412 91 249 0.0 1.7 0.00 0.00 0.00 38 1016.0
20260905162912 91 222 0.9 1.7 0.00 0.00 0.00 37 1016.0
20260905162412 91 104 0.9 2.6 0.00 0.00 0.00 39 1016.0
20260905161912 91 158 0.9 2.6 0.00 0.00 0.00 39 1015.9
20260905161412 91 139 1.7 2.6 0.00 0.00 0.00 39 1015.9
20260905160912 91 127 0.0 1.7 0.00 0.00 0.00 39 1015.9
20260905160411 91 95 0.9 2.6 0.00 0.00 0.00 40 1015.8
20260905155913 91 226 0.9 2.6 0.00 0.00 0.00 40 1015.9
20260905155411 91 271 0.9 2.6 0.00 0.00 0.00 40 1015.9
20260905154915 92 147 0.9 2.6 0.00 0.00 0.00 38 1015.9
20260905153912 93 191 0.9 2.6 0.00 0.00 0.00 32 1015.9
20260905153412 93 227 0.9 2.6 0.00 0.00 0.00 32 1016.0
20260905152912 93 189 1.7 2.6 0.00 0.00 0.00 33 1015.9
20260905152413 94 207 0.9 2.6 0.00 0.00 0.00 34 1015.8
20260905151912 94 185 0.9 2.6 0.00 0.00 0.00 34 1015.8
20260905151411 93 229 0.9 1.7 0.00 0.00 0.00 35 1015.8
20260905150912 93 150 0.9 2.6 0.00 0.00 0.00 33 1015.8
20260905150413 94 174 0.9 2.6 0.00 0.00 0.00 32 1015.8
20260905145411 94 144 0.9 2.6 0.00 0.00 0.00 31 1015.9
20260905144912 94 257 0.9 2.6 0.00 0.00 0.00 31 1015.9
20260905144413 94 216 0.9 2.6 0.00 0.00 0.00 32 1015.9
20260905143912 94 268 0.9 2.6 0.00 0.00 0.00 34 1015.9
20260905142912 94 179 0.9 2.6 0.00 0.00 0.00 32 1016.1
20260905141911 93 223 0.9 2.6 0.00 0.00 0.00 32 1016.1
20260905141412 93 228 0.9 2.6 0.00 0.00 0.00 33 1016.2
20260905140911 92 176 0.9 2.6 0.00 0.00 0.00 34 1016.3
20260905140412 92 203 1.7 2.6 0.00 0.00 0.00 36 1016.3
20260905135913 92 234 1.7 2.6 0.00 0.00 0.00 37 1016.3
20260905135411 91 232 1.7 2.6 0.00 0.00 0.00 38 1016.4
20260905134913 91 239 0.9 2.6 0.00 0.00 0.00 38 1016.4
20260905134417 90 226 1.7 2.6 0.00 0.00 0.00 39 1016.4
20260905133912 90 223 2.6 2.6 0.00 0.00 0.00 41 1016.5
20260905133411 91 227 1.7 4.3 0.00 0.00 0.00 42 1016.6
20260905132912 90 222 1.7 2.6 0.00 0.00 0.00 42 1016.6
20260905132412 90 212 1.7 2.6 0.00 0.00 0.00 42 1016.7
20260905131911 90 229 1.7 2.6 0.00 0.00 0.00 42 1016.7
20260905131412 90 226 2.6 2.6 0.00 0.00 0.00 41 1016.7
20260905130411 89 229 1.7 2.6 0.00 0.00 0.00 44 1016.8
20260905125911 89 227 2.6 2.6 0.00 0.00 0.00 43 1016.9
20260905125411 89 232 2.6 2.6 0.00 0.00 0.00 44 1016.9
20260905124913 89 222 2.6 2.6 0.00 0.00 0.00 43 1017.0
20260905124414 89 231 2.6 2.6 0.00 0.00 0.00 45 1017.0
20260905123912 89 230 2.6 2.6 0.00 0.00 0.00 50 1017.1
20260905123413 89 226 1.7 2.6 0.00 0.00 0.00 48 1017.2
20260905122911 90 221 2.6 2.6 0.00 0.00 0.00 46 1017.2
20260905122412 90 250 1.7 2.6 0.00 0.00 0.00 44 1017.2
20260905121912 89 244 2.6 2.6 0.00 0.00 0.00 42 1017.1
20260905121412 89 203 2.6 2.6 0.00 0.00 0.00 42 1017.1
20260905120912 89 220 2.6 2.6 0.00 0.00 0.00 40 1017.2
20260905115912 89 221 1.7 2.6 0.00 0.00 0.00 40 1017.3
20260905115411 89 235 2.6 2.6 0.00 0.00 0.00 37 1017.3
20260905114916 89 231 2.6 4.3 0.00 0.00 0.00 34 1017.3
20260905114416 89 237 2.6 2.6 0.00 0.00 0.00 36 1017.3
20260905113911 89 232 2.6 2.6 0.00 0.00 0.00 30 1017.4
20260905113412 90 236 2.6 2.6 0.00 0.00 0.00 28 1017.4
20260905112912 89 236 1.7 2.6 0.00 0.00 0.00 29 1017.5
20260905112412 89 233 1.7 2.6 0.00 0.00 0.00 32 1017.5
20260905111912 88 249 1.7 2.6 0.00 0.00 0.00 31 1017.5
20260905111411 88 244 2.6 2.6 0.00 0.00 0.00 34 1017.5
20260905110412 88 233 2.6 2.6 0.00 0.00 0.00 32 1017.6
20260905105912 87 247 2.6 2.6 0.00 0.00 0.00 33 1017.6
20260905105412 87 234 1.7 2.6 0.00 0.00 0.00 37 1017.6
20260905104911 87 235 2.6 2.6 0.00 0.00 0.00 36 1017.7
20260905103911 87 234 1.7 2.6 0.00 0.00 0.00 35 1017.7
20260905103412 87 239 2.6 2.6 0.00 0.00 0.00 40 1017.8
20260905102412 87 248 1.7 2.6 0.00 0.00 0.00 41 1017.8
20260905101411 86 249 1.7 2.6 0.00 0.00 0.00 48 1017.9
20260905100913 86 242 1.7 2.6 0.00 0.00 0.00 43 1017.9
20260905100412 86 235 1.7 2.6 0.00 0.00 0.00 47 1017.9
20260905095412 86 236 1.7 2.6 0.00 0.00 0.00 44 1017.9
20260905094912 87 234 1.7 2.6 0.00 0.00 0.00 39 1018.0
20260905094411 86 241 1.7 2.6 0.00 0.00 0.00 39 1018.0
20260905093412 86 235 2.6 2.6 0.00 0.00 0.00 36 1018.1
20260905092912 85 241 1.7 2.6 0.00 0.00 0.00 42 1018.1
20260905092411 85 245 1.7 2.6 0.00 0.00 0.00 44 1018.1
20260905091411 85 249 1.7 2.6 0.00 0.00 0.00 41 1018.2
20260905090913 85 248 1.7 2.6 0.00 0.00 0.00 43 1018.2
20260905085913 83 243 1.7 2.6 0.00 0.00 0.00 43 1018.2
20260905085411 83 235 1.7 2.6 0.00 0.00 0.00 48 1018.2
20260905084911 83 239 1.7 2.6 0.00 0.00 0.00 51 1018.2
20260905084412 82 214 1.7 2.6 0.00 0.00 0.00 54 1018.3
20260905083911 82 259 0.9 2.6 0.00 0.00 0.00 56 1018.3
20260905083411 82 281 1.7 2.6 0.00 0.00 0.00 56 1018.3
20260905082912 82 234 1.7 2.6 0.00 0.00 0.00 57 1018.3
20260905082419 82 218 1.7 2.6 0.00 0.00 0.00 56 1018.3
20260905081911 82 269 1.7 2.6 0.00 0.00 0.00 56 1018.3
20260905081412 82 242 1.7 2.6 0.00 0.00 0.00 55 1018.2
20260905080912 81 249 1.7 2.6 0.00 0.00 0.00 56 1018.2
20260905080413 81 244 1.7 2.6 0.00 0.00 0.00 58 1018.1
20260905075912 81 261 1.7 2.6 0.00 0.00 0.00 56 1018.1
20260905075412 81 253 1.7 2.6 0.00 0.00 0.00 58 1018.0
20260905074912 81 244 1.7 2.6 0.00 0.00 0.00 56 1017.9
20260905074413 82 222 1.7 2.6 0.00 0.00 0.00 54 1017.9
20260905073913 82 222 1.7 2.6 0.00 0.00 0.00 51 1017.8
20260905072912 83 235 1.7 2.6 0.00 0.00 0.00 50 1017.7
20260905072411 82 227 0.9 2.6 0.00 0.00 0.00 50 1017.7
20260905071912 82 217 0.9 2.6 0.00 0.00 0.00 50 1017.6
20260905071411 82 216 0.9 2.6 0.00 0.00 0.00 51 1017.6
20260905070913 82 224 0.9 2.6 0.00 0.00 0.00 52 1017.6
20260905070411 82 224 0.0 0.0 0.00 0.00 0.00 51 1017.6
20260905065411 83 224 0.0 0.0 0.00 0.00 0.00 51 1017.5
20260905064911 83 224 0.0 0.0 0.00 0.00 0.00 50 1017.5
20260905064412 83 224 0.0 0.0 0.00 0.00 0.00 51 1017.5
20260905063411 82 224 0.0 0.0 0.00 0.00 0.00 53 1017.5
20260905062911 81 224 0.0 0.0 0.00 0.00 0.00 54 1017.5
20260905062411 80 224 0.0 0.0 0.00 0.00 0.00 56 1017.6
20260905061912 80 224 0.0 0.0 0.00 0.00 0.00 57 1017.6
20260905061411 79 224 0.0 0.0 0.00 0.00 0.00 57 1017.7
20260905060911 79 224 0.0 0.0 0.00 0.00 0.00 57 1017.7
20260905060412 79 224 0.0 0.0 0.00 0.00 0.00 57 1017.7
20260905055912 79 224 0.0 1.7 0.00 0.00 0.00 56 1017.7
20260905055412 79 224 0.9 1.7 0.00 0.00 0.00 56 1017.7
20260905054911 79 224 0.9 2.6 0.00 0.00 0.00 55 1017.7
20260905054412 79 224 0.9 1.7 0.00 0.00 0.00 52 1017.7
20260905053912 79 224 0.9 1.7 0.00 0.00 0.00 51 1017.7
20260905053413 80 224 0.9 2.6 0.00 0.00 0.00 50 1017.6
20260905052912 80 224 0.0 1.7 0.00 0.00 0.00 53 1017.6
20260905052413 80 224 0.0 0.0 0.00 0.00 0.00 54 1017.6
20260905051912 79 224 0.0 0.0 0.00 0.00 0.00 55 1017.6
20260905051412 79 224 0.0 0.0 0.00 0.00 0.00 55 1017.6
20260905050411 78 224 0.0 0.9 0.00 0.00 0.00 56 1017.6
20260905045911 79 224 0.9 1.7 0.00 0.00 0.00 56 1017.6
20260905045411 78 288 0.0 0.0 0.00 0.00 0.00 54 1017.5
20260905044912 78 288 0.0 0.9 0.00 0.00 0.00 55 1017.5
20260905044412 78 288 0.0 0.0 0.00 0.00 0.00 53 1017.5
20260905043412 78 296 0.0 0.0 0.00 0.00 0.00 54 1017.4
20260905042411 78 314 0.0 0.9 0.00 0.00 0.00 56 1017.3
20260905041911 78 314 0.9 1.7 0.00 0.00 0.00 56 1017.3
20260905041411 78 265 0.9 1.7 0.00 0.00 0.00 56 1017.3
20260905040411 78 241 0.9 2.6 0.00 0.00 0.00 58 1017.2
20260905035911 78 263 1.7 2.6 0.00 0.00 0.00 56 1017.2
20260905035411 78 255 1.7 2.6 0.00 0.00 0.00 55 1017.1
20260905034411 78 289 0.9 1.7 0.00 0.00 0.00 57 1017.1
20260905033911 78 262 0.9 1.7 0.00 0.00 0.00 57 1017.1
20260905033411 78 257 1.7 2.6 0.00 0.00 0.00 57 1017.1
20260905032912 78 261 1.7 1.7 0.00 0.00 0.00 57 1017.1
20260905032409 78 247 1.7 2.6 0.00 0.00 0.00 56 1017.1
20260905031911 78 284 1.7 2.6 0.00 0.00 0.00 56 1017.0
20260905031410 78 262 1.7 2.6 0.00 0.00 0.00 55 1017.1
20260905030911 78 272 1.7 2.6 0.00 0.00 0.00 55 1017.1
20260905030411 78 284 1.7 2.6 0.00 0.00 0.00 54 1017.1
20260905025910 78 298 1.7 2.6 0.00 0.00 0.00 52 1017.1
20260905025412 78 247 0.9 2.6 0.00 0.00 0.00 54 1017.1
20260905024911 78 251 1.7 2.6 0.00 0.00 0.00 55 1017.0
20260905024411 78 266 0.9 1.7 0.00 0.00 0.00 56 1017.0
20260905023910 78 286 1.7 2.6 0.00 0.00 0.00 57 1017.0
20260905023411 78 277 0.9 2.6 0.00 0.00 0.00 58 1017.0
20260905022910 78 291 1.7 2.6 0.00 0.00 0.00 58 1017.0
20260905022411 78 293 1.7 2.6 0.00 0.00 0.00 58 1017.1
20260905021911 78 284 1.7 2.6 0.00 0.00 0.00 57 1017.1
20260905021411 79 249 1.7 2.6 0.00 0.00 0.00 57 1017.0
20260905020911 79 258 1.7 2.6 0.00 0.00 0.00 56 1017.1
20260905020411 79 258 0.9 2.6 0.00 0.00 0.00 55 1017.1
20260905015911 79 248 1.7 2.6 0.00 0.00 0.00 55 1017.2
20260905015411 80 274 1.7 2.6 0.00 0.00 0.00 56 1017.2
20260905014910 80 248 0.9 2.6 0.00 0.00 0.00 58 1017.2
20260905014410 80 261 1.7 2.6 0.00 0.00 0.00 58 1017.2
20260905012910 80 307 0.0 1.7 0.00 0.00 0.00 58 1017.3
20260905012411 81 273 0.9 2.6 0.00 0.00 0.00 58 1017.2
20260905011911 80 288 1.7 2.6 0.00 0.00 0.00 58 1017.3
20260905011410 80 288 1.7 2.6 0.00 0.00 0.00 60 1017.3
20260905010910 80 280 1.7 2.6 0.00 0.00 0.00 61 1017.3
20260905010411 80 279 1.7 2.6 0.00 0.00 0.00 62 1017.3
20260905005911 81 272 1.7 2.6 0.00 0.00 0.00 60 1017.3
20260905004911 81 305 1.7 2.6 0.00 0.00 0.00 56 1017.3
20260905004412 81 244 1.7 2.6 0.00 0.00 0.00 59 1017.3
20260905003912 81 224 1.7 2.6 0.00 0.00 0.00 60 1017.2
20260905003411 81 235 1.7 2.6 0.00 0.00 0.00 56 1017.2
20260905002911 81 222 1.7 2.6 0.00 0.00 0.00 51 1017.2
20260905002411 81 218 1.7 2.6 0.00 0.00 0.00 48 1017.3
20260905001911 81 205 1.7 2.6 0.00 0.00 0.00 47 1017.3
20260905001411 81 228 1.7 2.6 0.00 0.00 0.00 43 1017.3
20260905000911 81 137 1.7 2.6 0.00 0.00 0.00 43 1017.2
20260904235911 81 134 0.0 0.9 0.00 0.00 0.00 44 1017.2
20260904235411 81 134 0.0 0.0 0.00 0.00 0.00 44 1017.2
20260904234911 82 134 0.9 1.7 0.00 0.00 0.00 43 1017.2
20260904234411 82 134 0.0 0.9 0.00 0.00 0.00 43 1017.2
20260904233911 82 133 1.7 2.6 0.00 0.00 0.00 42 1017.2
20260904232911 82 357 0.9 2.6 0.00 0.00 0.00 40 1017.2
20260904232410 82 65 0.9 1.7 0.00 0.00 0.00 41 1017.2
20260904231411 82 35 1.7 2.6 0.00 0.00 0.00 44 1017.2
20260904230911 82 67 0.9 2.6 0.00 0.00 0.00 45 1017.3
20260904230410 82 108 0.9 2.6 0.00 0.00 0.00 46 1017.4
20260904225912 83 126 0.9 2.6 0.00 0.00 0.00 44 1017.4
20260904225410 83 232 0.0 2.6 0.00 0.00 0.00 39 1017.4
20260904224911 83 237 1.7 2.6 0.00 0.00 0.00 38 1017.4
20260904224411 82 305 0.9 2.6 0.00 0.00 0.00 41 1017.4
20260904223911 82 266 0.0 4.3 0.00 0.00 0.00 45 1017.4
20260904223412 81 89 0.0 4.3 0.00 0.00 0.00 51 1017.4
20260904222911 81 112 0.0 0.0 0.00 0.00 0.00 53 1017.4
20260904222411 82 112 0.0 1.7 0.00 0.00 0.00 53 1017.4
20260904221911 82 114 0.0 1.7 0.00 0.00 0.00 49 1017.5
20260904221410 82 117 0.0 0.0 0.00 0.00 0.00 50 1017.5
20260904220910 82 116 0.9 2.6 0.00 0.00 0.00 46 1017.5
20260904220411 83 144 0.0 1.7 0.00 0.00 0.00 42 1017.5
20260904215911 83 131 0.0 1.7 0.00 0.00 0.00 41 1017.4
20260904215410 83 118 0.9 2.6 0.00 0.00 0.00 40 1017.4
20260904214910 83 138 0.9 2.6 0.00 0.00 0.00 42 1017.4
20260904214411 83 258 0.0 1.7 0.00 0.00 0.00 40 1017.4
20260904213911 83 261 0.9 2.6 0.00 0.00 0.00 39 1017.2
20260904213411 84 254 0.9 1.7 0.00 0.00 0.00 41 1017.1
20260904212910 84 254 0.9 1.7 0.00 0.00 0.00 42 1017.2
20260904212411 84 263 0.9 2.6 0.00 0.00 0.00 40 1017.2
20260904211911 85 256 1.7 2.6 0.00 0.00 0.00 34 1017.2
20260904211411 85 261 0.9 2.6 0.00 0.00 0.00 31 1017.1
20260904210410 85 50 0.9 2.6 0.00 0.00 0.00 31 1017.1
20260904205410 85 283 1.7 2.6 0.00 0.00 0.00 33 1017.2
20260904204912 85 281 1.7 2.6 0.00 0.00 0.00 33 1017.2
20260904204413 85 257 1.7 1.7 0.00 0.00 0.00 32 1017.2
20260904203910 85 257 1.7 2.6 0.00 0.00 0.00 32 1017.2
20260904203411 85 270 1.7 2.6 0.00 0.00 0.00 32 1017.2
20260904202910 85 293 0.9 2.6 0.00 0.00 0.00 32 1017.2
20260904202410 85 313 0.9 2.6 0.00 0.00 0.00 32 1017.2